Regional Weather Roundup
Issued by NWS

Home | Current Version | Previous Version | Graphics & Text | Print | Product List | Glossary On
Versions: 1 2 3 4 5 6 7 8 9 10 11 12 13 14 15 16 17 18 19 20 21 22 23 24 25 26 27 28
000
ASUS45 KBOI 272310
RWRID

IDAHO REGIONAL WEATHER ROUNDUP
NATIONAL WEATHER SERVICE BOISE ID
500 PM MDT MON MAR 27 2017

NOTE: "FAIR" INDICATES FEW OR NO CLOUDS BELOW 12000 FEET
WITH NO SIGNIFICANT WEATHER AND/OR OBSTRUCTIONS TO VISIBILITY

IDZ012-014-280000-
SOUTHWEST IDAHO


CITY           SKY/WX    TMP DP  RH WIND       PRES   REMARKS
BOISE          PTSUNNY   55  32  41 NW15G24   30.04R
CALDWELL       CLOUDY    51  29  42 W12G29    30.07R
MOUNTAIN HOME  SUNNY     55  29  36 NW25G33   30.02R
$$

IDZ016-017-280000-
SOUTHCENTRAL IDAHO


CITY           SKY/WX    TMP DP  RH WIND       PRES   REMARKS
BURLEY         PTSUNNY   49  29  46 W23G37    29.92S
JEROME         SUNNY     51  31  46 W26G36    29.96R
TWIN FALLS     MOSUNNY   49  26  41 W26G33    29.97R
$$

IDZ019>023-280000-
SOUTHEAST IDAHO


CITY           SKY/WX    TMP DP  RH WIND       PRES   REMARKS
IDAHO FALLS    CLOUDY    46  37  71 S12       29.92R
POCATELLO      CLOUDY    48  37  65 SW13      29.93R
REXBURG        CLOUDY    44  39  82 CALM      29.91R
$$

IDZ006-010-011-018-031-032-280000-
CENTRAL IDAHO MOUNTAINS


CITY           SKY/WX    TMP DP  RH WIND       PRES   REMARKS
MCCALL         LGT RAIN  41  27  57 MISG      30.02R
HAILEY         PTSUNNY   48  32  53 CALM      29.91R
STANLEY          N/A     37  26  64 N12G20    29.97R WCI  29
SALMON         CLOUDY    48  28  46 NW6       29.94R
CHALLIS        PTSUNNY   48  31  51 NE13      29.91R
$$

IDZ002-004-006-007-026-280000-
NORTHERN IDAHO


CITY           SKY/WX    TMP DP  RH WIND       PRES   REMARKS
LEWISTON       MOSUNNY   57  32  38 W13       30.06S
LOWELL           N/A     44  41  89 CALM      30.14R
COEUR D`ALENE  PTSUNNY   48  37  65 VRB6      30.05R
MULLAN PASS    SNOW      31  31 100 VRB6      30.00R VSB 1/4 WCI  25
$$




USA.gov is the U.S. government's official web portal to all federal, state and local government web resources and services.